CW0198 Weather Reports


Display with metric or nautical units.
time (UTC)temp
F
wind
direction
speed
MPH
gust
MPH
rain 1hr
in
rain 24hr
in
rain mn
in
humidity
%
barometer
mb
20260505020049 66 203 5.0 13.0 0.00 0.00 0.00 66 1014.8
20260505014532 67 191 5.0 11.0 0.00 0.00 0.00 65 1014.7
20260505013049 67 186 5.0 11.0 0.00 0.00 0.00 64 1014.5
20260505011515 68 211 3.0 7.0 0.00 0.00 0.00 58 1014.3
20260505010036 68 165 2.0 8.0 0.00 0.00 0.00 54 1013.9
20260505004511 69 221 2.0 5.0 0.00 0.00 0.00 51 1013.5
20260505003046 70 202 1.0 4.0 0.00 0.00 0.00 50 1013.3
20260505001600 71 214 2.0 6.0 0.00 0.00 0.00 48 1013.4
20260505000030 72 182 2.0 5.0 0.00 0.00 0.00 46 1013.3
20260504234550 74 229 2.0 6.0 0.00 0.00 0.00 44 1013.1
20260504233012 75 209 2.0 9.0 0.00 0.00 0.00 42 1012.8
20260504231538 76 213 3.0 7.0 0.00 0.00 0.00 41 1012.8
20260504230050 77 207 4.0 7.0 0.00 0.00 0.00 40 1012.8
20260504224509 78 218 5.0 11.0 0.00 0.00 0.00 39 1012.9
20260504223051 78 198 4.0 12.0 0.00 0.00 0.00 38 1012.9
20260504221556 79 149 5.0 10.0 0.00 0.00 0.00 37 1012.8
20260504220024 79 300 7.0 11.0 0.00 0.00 0.00 36 1012.8
20260504214547 80 321 4.0 13.0 0.00 0.00 0.00 37 1012.9
20260504213022 80 212 6.0 11.0 0.00 0.00 0.00 36 1012.9
20260504211538 80 176 3.0 13.0 0.00 0.00 0.00 38 1012.9
20260504210058 79 225 7.0 13.0 0.00 0.00 0.00 35 1013.0
20260504204533 79 214 4.0 11.0 0.00 0.00 0.00 37 1012.9
20260504203042 80 214 4.0 10.0 0.00 0.00 0.00 35 1013.3
20260504201600 80 167 4.0 13.0 0.00 0.00 0.00 38 1013.3
20260504200018 80 226 2.0 11.0 0.00 0.00 0.00 33 1013.3
20260504194538 80 194 3.0 11.0 0.00 0.00 0.00 34 1013.5
20260504193058 79 288 3.0 10.0 0.00 0.00 0.00 35 1013.6
20260504191524 79 216 6.0 12.0 0.00 0.00 0.00 35 1014.0
20260504190046 79 282 4.0 11.0 0.00 0.00 0.00 37 1014.1
20260504184512 78 237 5.0 11.0 0.00 0.00 0.00 39 1014.2
20260504183032 78 212 6.0 11.0 0.00 0.00 0.00 37 1014.4
20260504181604 77 266 5.0 10.0 0.00 0.00 0.00 39 1014.4
20260504180026 76 286 5.0 12.0 0.00 0.00 0.00 41 1014.7
20260504174544 76 203 6.0 13.0 0.00 0.00 0.00 42 1015.0
20260504173009 76 232 6.0 12.0 0.00 0.00 0.00 44 1015.1
20260504171532 76 252 5.0 14.0 0.00 0.00 0.00 43 1015.4
20260504081519 45 186 0.0 0.0 0.00 0.00 0.00 91 1017.0
20260504044512 43 283 0.0 0.0 0.00 0.01 0.00 90 1017.2
20260504043033 44 283 0.0 0.0 0.00 0.01 0.00 89 1017.3
20260504041553 43 283 0.0 0.0 0.00 0.01 0.00 90 1017.4
20260504040015 44 283 0.0 0.0 0.00 0.01 0.01 90 1017.3
20260504034546 44 283 0.0 0.0 0.00 0.01 0.01 89 1017.4
20260504033001 45 283 0.0 0.0 0.00 0.01 0.01 84 1017.2
20260504031539 45 283 0.0 0.0 0.00 0.01 0.01 85 1017.2
20260504030118 45 283 0.0 0.0 0.00 0.01 0.01 84 1017.2
20260504024520 46 283 0.0 0.0 0.00 0.01 0.01 84 1017.1
20260504023040 46 283 0.0 0.0 0.00 0.01 0.01 84 1017.2
20260504021510 47 283 0.0 0.0 0.00 0.01 0.01 84 1017.2